Location: Bemmer
(51.5498°N, 5.6249°E)
Time: 12:52:30
(UTC+00:00)

Cosmos 2278 Rocket - Pass Details

Date: 03 March 2021
Orbit: 841 x 845 km, 71.0° (Epoch: 16 April)

Event Time Altitude Azimuth Distance (km) Brightness Sun altitude
Rises 20:22:28 0° 328° (NNW) 3,416 6.2 -28.1°
Reaches altitude 10° 20:24:56 10° 327° (NNW) 2,477 5.4 -28.5°
Enters shadow 20:30:32 72° 249° (WSW) 891 2.3 -29.2°
